TimePDT,TemperatureF,Dew PointF,Humidity,Sea Level PressureIn,VisibilityMPH,Wind Direction,Wind SpeedMPH,Gust SpeedMPH,PrecipitationIn,Events,Conditions,WindDirDegrees,DateUTC
12:53 AM,70.0,19.0,14,29.94,10.0,Calm,Calm,-,N/A,,Clear,0,2013-04-28 07:53:00
1:53 AM,69.1,21.9,17,29.94,10.0,Calm,Calm,-,N/A,,Clear,0,2013-04-28 08:53:00
2:53 AM,66.9,21.0,17,29.94,10.0,NW,4.6,-,N/A,,Clear,320,2013-04-28 09:53:00
3:53 AM,66.0,25.0,21,29.94,10.0,WNW,4.6,-,N/A,,Clear,290,2013-04-28 10:53:00
4:53 AM,64.9,21.0,19,29.94,10.0,WNW,3.5,-,N/A,,Clear,300,2013-04-28 11:53:00
5:53 AM,62.6,23.0,22,29.96,10.0,NW,4.6,-,N/A,,Clear,310,2013-04-28 12:53:00
6:53 AM,64.0,24.1,22,29.97,10.0,Calm,Calm,-,N/A,,Clear,0,2013-04-28 13:53:00
7:53 AM,73.0,19.0,13,29.96,10.0,NW,11.5,-,N/A,,Clear,320,2013-04-28 14:53:00
8:53 AM,78.1,19.9,11,29.96,10.0,Calm,Calm,-,N/A,,Clear,0,2013-04-28 15:53:00
9:53 AM,82.0,17.1,9,29.96,10.0,Calm,Calm,-,N/A,,Clear,0,2013-04-28 16:53:00
10:53 AM,84.0,16.0,8,29.95,10.0,Calm,Calm,-,N/A,,Clear,0,2013-04-28 17:53:00
11:53 AM,87.1,14.0,7,29.93,10.0,South,3.5,-,N/A,,Clear,180,2013-04-28 18:53:00
12:53 PM,89.1,12.9,6,29.91,10.0,SW,5.8,-,N/A,,Clear,230,2013-04-28 19:53:00
1:53 PM,93.0,12.9,5,29.87,10.0,Calm,Calm,-,N/A,,Clear,0,2013-04-28 20:53:00
2:53 PM,93.0,12.0,5,29.83,10.0,Calm,Calm,-,N/A,,Clear,0,2013-04-28 21:53:00
3:53 PM,93.9,12.0,5,29.80,10.0,South,6.9,-,N/A,,Clear,170,2013-04-28 22:53:00
4:53 PM,93.9,12.0,5,29.78,10.0,South,5.8,-,N/A,,Clear,190,2013-04-28 23:53:00
5:53 PM,93.0,12.0,5,29.77,10.0,SE,4.6,-,N/A,,Clear,140,2013-04-29 00:53:00
6:53 PM,93.0,12.9,5,29.75,10.0,Calm,Calm,-,N/A,,Clear,0,2013-04-29 01:53:00
7:53 PM,90.0,16.0,7,29.74,10.0,SSW,4.6,-,N/A,,Clear,200,2013-04-29 02:53:00
8:53 PM,87.1,15.1,7,29.75,10.0,WSW,9.2,-,N/A,,Clear,250,2013-04-29 03:53:00
9:53 PM,84.9,16.0,8,29.76,10.0,NW,6.9,-,N/A,,Clear,320,2013-04-29 04:53:00
10:53 PM,80.1,18.0,10,29.76,10.0,North,8.1,-,N/A,,Clear,360,2013-04-29 05:53:00
11:53 PM,75.9,18.0,11,29.76,10.0,NNW,5.8,-,N/A,,Clear,340,2013-04-29 06:53:00